Location: Mascot Post Office (historical)
(40.2645°N, 99.5462°W)
Time: 10:09:59
(UTC+00:00)

NOSS 3-4 (C) - Pass Details

Date: 29 October 2020
Orbit: 886 x 1326 km, 63.4° (Epoch: 06 November)

Event Time Altitude Azimuth Distance (km) Brightness Sun altitude
Rises 01:49:06 0° 329° (NNW) 3,826 7.1 -25.3°
Reaches altitude 10° 01:51:45 10° 335° (NNW) 2,932 6.3 -25.8°
Enters shadow 01:58:31 47° 49° (NE) 1,501 4.1 -27.1°
